Back to catalog

GLOBAL-4

AliveCommunicationsVLEO
NORAD 44499·PAYLOAD·🇺🇸 United States

Launched Aug 19, 2019 from Rocket Lab Launch Complex 1

Loading…

Next Passes (next 24 hours)

TLE

FreshSource: Space-Track

Epoch: Sep 14, 2026, 12:34 UTC

1 44499U 19054E   26257.52418233  .00075233  00000-0  49866-3 0  9995
2 44499  45.0026  77.2934 0008112 258.5692 101.4298 15.74591117394394

Track GLOBAL-4 in real time with AllMySat

Download on the App Store